User: anonymous   Login
Location: Christchurch
(43.5330°S, 172.6330°E)
Time: 20:45:13
(UTC+13:00)
Language:

Cosmos 1606 - Orbit

View from above orbital plane
View from above orbital plane
View from above satellite
View from above satellite

Ground track
Ground track

The orbit data is extracted from the following two-line orbital elements,

1 15369U 84111A   19293.76095303 +.00000200 +00000-0 +85588-5 0  9997
2 15369 082.5300 000.3019 0018014 164.8366 195.3411 15.16475691910093
Epoch (UTC): 20 October 2019 18:15:46
Eccentricity: 0.0018014
inclination: 82.5300°
perigee height: 504 km
apogee height: 529 km
right ascension of ascending node: 0.3019°
argument of perigee: 164.8366°
revolutions per day: 15.16475691
mean anomaly at epoch: 195.3411°
orbit number at epoch: 91009

The dashed part of the orbit path shows where the satellite is in the earth's shadow,  

DLR